FW9472 Weather Reports


time (UTC)temp
F
wind
direction
speed
knots
gust
knots
rain 1hr
in
rain 24hr
in
rain mn
in
humidity
%
barometer
mb
20260509000032 65 0 0.0 0.9 0.00 0.00 0.00 65 1014.1
20260508234532 66 0 0.0 1.7 0.00 0.00 0.00 65 1014.0
20260508233031 66 0 0.0 2.6 0.00 0.00 0.00 64 1014.1
20260508231529 67 0 0.0 0.9 0.00 0.00 0.00 62 1014.2
20260508230032 67 0 0.0 1.7 0.00 0.00 0.00 61 1014.0
20260508224532 67 0 0.0 2.6 0.00 0.00 0.00 60 1014.1
20260508223030 67 0 0.0 3.5 0.00 0.00 0.00 60 1014.0
20260508221530 67 229 0.9 3.5 0.00 0.00 0.00 59 1014.0
20260508220034 68 256 0.0 3.5 0.00 0.00 0.00 59 1013.9
20260508214532 68 245 0.9 3.5 0.00 0.00 0.00 59 1013.9
20260508213032 68 219 0.9 7.0 0.00 0.00 0.00 58 1014.1
20260508211530 68 202 0.0 2.6 0.00 0.00 0.00 56 1014.1
20260508210034 68 0 0.9 5.2 0.00 0.00 0.00 58 1014.0
20260508204530 69 0 0.9 7.0 0.00 0.00 0.00 55 1014.2
20260508203034 69 0 0.0 2.6 0.00 0.00 0.00 56 1014.4
20260508201530 69 0 0.0 2.6 0.00 0.00 0.00 54 1014.3
20260508200030 69 0 0.0 4.3 0.00 0.00 0.00 54 1014.5
20260508194531 70 246 3.5 9.6 0.00 0.00 0.00 52 1015.0
20260508193032 70 210 2.6 6.1 0.00 0.00 0.00 50 1015.2
20260508191537 70 202 0.9 4.3 0.00 0.00 0.00 50 1015.3
20260508190037 68 235 0.0 2.6 0.00 0.00 0.00 56 1015.4
20260508184530 70 94 0.0 7.8 0.00 0.00 0.00 52 1015.8
20260508183031 70 120 0.0 3.5 0.00 0.00 0.00 54 1015.9
20260508181531 69 0 0.0 2.6 0.00 0.00 0.00 55 1016.2
20260508180032 69 0 1.7 7.8 0.00 0.00 0.00 54 1016.4
20260508174546 68 0 0.0 6.1 0.00 0.00 0.00 55 1016.4
20260508173031 67 263 0.0 3.5 0.00 0.00 0.00 58 1016.6
20260508171528 67 0 0.0 1.7 0.00 0.00 0.00 56 1016.8
20260508170034 68 0 0.0 1.7 0.00 0.00 0.00 57 1017.1
20260508164530 67 244 0.0 6.1 0.00 0.00 0.00 55 1017.3
20260508163050 66 0 0.0 3.5 0.00 0.00 0.00 59 1017.5
20260508161530 66 260 1.7 4.3 0.00 0.00 0.00 53 1017.6
20260508160033 68 71 0.9 2.6 0.00 0.00 0.00 51 1017.6
20260508154530 67 84 0.0 4.3 0.00 0.03 0.00 53 1017.9
20260508153031 66 0 0.9 5.2 0.00 0.03 0.00 54 1018.1
20260508151534 65 53 0.0 7.0 0.00 0.03 0.00 56 1018.1
20260508150031 65 148 0.0 3.5 0.00 0.03 0.00 59 1018.1
20260508144535 64 105 0.0 5.2 0.00 0.09 0.00 59 1018.0
20260508143028 63 112 0.9 6.1 0.00 0.09 0.00 59 1018.0
20260508141530 63 0 0.0 2.6 0.00 0.09 0.00 63 1018.1
20260508140032 63 94 0.9 3.5 0.00 0.09 0.00 62 1018.4
20260508134534 62 0 0.0 3.5 0.00 0.17 0.00 65 1018.4
20260508133030 61 106 0.9 2.6 0.00 0.17 0.00 71 1018.4
20260508131531 60 0 0.0 3.5 0.00 0.17 0.00 72 1018.3
20260508130027 58 71 0.9 3.5 0.00 0.17 0.00 73 1018.3
20260508124528 57 0 0.0 3.5 0.00 0.26 0.00 76 1018.0
20260508123034 56 0 0.0 3.5 0.00 0.26 0.00 75 1017.8
20260508121534 55 0 0.0 3.5 0.00 0.26 0.00 77 1017.7
20260508120028 54 0 0.0 1.7 0.00 0.26 0.00 78 1017.5
20260508114527 52 0 0.0 2.6 0.00 0.38 0.00 81 1017.3
20260508113030 51 0 0.0 2.6 0.00 0.38 0.00 85 1017.2
20260508111527 51 0 0.0 2.6 0.00 0.38 0.00 86 1016.8
20260508110038 50 0 0.0 1.7 0.00 0.38 0.00 88 1016.6
20260508104528 50 0 0.0 1.7 0.00 0.50 0.00 88 1016.2
20260508103036 50 0 0.0 1.7 0.00 0.50 0.00 88 1016.0
20260508101535 50 324 0.0 1.7 0.00 0.50 0.00 87 1015.8
20260508100030 50 324 0.0 1.7 0.00 0.50 0.00 87 1015.6
20260508094528 51 324 0.0 1.7 0.00 0.58 0.00 87 1015.4
20260508093048 51 0 0.9 2.6 0.00 0.58 0.00 87 1015.3
20260508091531 51 324 0.0 3.5 0.00 0.58 0.00 89 1015.3
20260508090046 51 0 0.0 1.7 0.00 0.58 0.00 90 1015.2
20260508084528 51 74 0.0 0.9 0.00 0.81 0.00 89 1015.2
20260508083031 51 0 0.0 0.9 0.00 0.81 0.00 89 1015.0
20260508081528 51 0 0.0 1.7 0.00 0.81 0.00 89 1014.9
20260508080036 51 0 0.0 1.7 0.00 0.81 0.00 89 1014.9
20260508074536 51 76 0.0 0.0 0.00 1.04 0.00 88 1015.0
20260508073030 52 0 0.0 0.0 0.00 1.04 0.00 87 1014.8
20260508071530 52 0 0.0 0.9 0.00 1.04 0.00 87 1014.8
20260508070030 52 0 0.0 0.0 0.00 1.04 0.00 86 1014.7
20260508064529 53 0 0.0 0.9 0.00 1.28 0.00 86 1014.4
20260508063031 53 0 0.0 0.0 0.00 1.28 0.00 85 1014.5
20260508061530 53 0 0.0 0.0 0.00 1.28 0.00 84 1014.5
20260508060030 54 0 0.0 0.0 0.00 1.28 0.00 84 1014.5
20260508054531 54 0 0.0 0.0 0.00 1.47 0.00 83 1014.5
20260508053032 55 0 0.0 0.0 0.00 1.47 0.00 83 1014.6
20260508051529 55 0 0.0 0.9 0.00 1.47 0.00 82 1014.5
20260508050030 55 0 0.0 0.9 0.00 1.47 0.00 81 1014.5
20260508044532 56 0 0.0 0.0 0.00 1.68 0.00 80 1014.4
20260508043031 56 0 0.0 0.9 0.00 1.68 0.00 79 1014.3
20260508041534 57 0 0.0 0.0 0.00 1.68 0.00 77 1014.1
20260508040035 58 0 0.0 0.0 0.00 1.68 0.00 76 1013.8
20260508034528 58 0 0.0 0.9 0.00 1.68 1.68 74 1014.3
20260508033036 58 0 0.0 1.7 0.00 1.68 1.68 74 1013.9
20260508031533 59 0 0.0 0.9 0.00 1.68 1.68 74 1013.9
20260508030039 59 0 0.0 1.7 0.00 1.68 1.68 74 1013.8
20260508024530 60 0 0.0 0.9 0.00 1.69 1.68 74 1013.7
20260508023040 60 0 0.0 1.7 0.00 1.69 1.68 73 1013.6
20260508021535 61 0 0.9 3.5 0.00 1.69 1.68 72 1013.3
20260508020029 62 0 0.0 4.3 0.00 1.69 1.68 72 1013.0
20260508014534 62 337 0.0 4.3 0.00 2.15 1.68 71 1012.7
20260508013029 63 0 0.0 2.6 0.00 2.15 1.68 69 1012.4
20260508011527 64 0 0.0 5.2 0.00 2.15 1.68 68 1012.0
20260508010039 65 329 1.7 4.3 0.00 2.15 1.68 66 1011.8
20260508004533 67 330 0.9 4.3 0.00 2.26 1.68 64 1011.4
20260508003028 68 63 0.9 5.2 0.00 2.26 1.68 62 1011.1
20260508001535 69 296 1.7 13.0 0.00 2.26 1.68 60 1010.5